Portland Weather Center

Moon Phase Calendar



Online Cameras

 


      

Current Conditions in Portland
8/3/2021 6:50:36 PM

70°F
Feels Like 70
Clear
Humidity
72%
Pressure
30.09"
Wind
1 mph (S)
Dew Point
62°F
UV Index
0/10 (Low)
Visibility
6 mi

Hourly Forecast

Date & Time Tue, Aug 3
6:00 PM
Tue, Aug 3
7:00 PM
Tue, Aug 3
8:00 PM
Tue, Aug 3
9:00 PM
Tue, Aug 3
10:00 PM
Tue, Aug 3
11:00 PM
Wed, Aug 4
12:00 AM
Wed, Aug 4
1:00 AM
Wed, Aug 4
2:00 AM
Wed, Aug 4
3:00 AM
Wed, Aug 4
4:00 AM
Wed, Aug 4
5:00 AM
Wed, Aug 4
6:00 AM
Wed, Aug 4
7:00 AM
Wed, Aug 4
8:00 AM
Wed, Aug 4
9:00 AM
Wed, Aug 4
10:00 AM
Wed, Aug 4
11:00 AM
Wed, Aug 4
12:00 PM
Wed, Aug 4
1:00 PM
Wed, Aug 4
2:00 PM
Wed, Aug 4
3:00 PM
Wed, Aug 4
4:00 PM
Wed, Aug 4
5:00 PM
Wed, Aug 4
6:00 PM
Wed, Aug 4
7:00 PM
Wed, Aug 4
8:00 PM
Wed, Aug 4
9:00 PM
Wed, Aug 4
10:00 PM
Wed, Aug 4
11:00 PM
Thu, Aug 5
12:00 AM
Thu, Aug 5
1:00 AM
Thu, Aug 5
2:00 AM
Thu, Aug 5
3:00 AM
Thu, Aug 5
4:00 AM
Thu, Aug 5
5:00 AM
Thu, Aug 5
6:00 AM
Thu, Aug 5
7:00 AM
Thu, Aug 5
8:00 AM
Thu, Aug 5
9:00 AM
Thu, Aug 5
10:00 AM
Thu, Aug 5
11:00 AM
Thu, Aug 5
12:00 PM
Thu, Aug 5
1:00 PM
Thu, Aug 5
2:00 PM
Thu, Aug 5
3:00 PM
Thu, Aug 5
4:00 PM
Thu, Aug 5
5:00 PM
Condition
Clouds

Clouds

Clouds

Clouds

Clouds

Clouds

Clouds

Clouds

Clouds

Clouds

Clouds

Clouds

Clouds

Clouds

Clouds

Clouds

Clouds

Clouds

Clouds

Clouds

Clouds

Clouds

Clouds

Clouds

Clouds

Clouds

Clouds

Clouds

Clouds

Clouds

Clouds

Rain

Rain

Rain

Rain

Rain

Rain

Rain

Clouds

Clouds

Clouds

Clouds

Rain

Rain

Rain

Clouds

Clouds

Clouds
Temperature 70°F70°F70°F69°F68°F66°F64°F64°F64°F64°F63°F63°F62°F64°F66°F67°F71°F71°F73°F74°F75°F73°F72°F71°F70°F68°F65°F64°F64°F64°F64°F63°F62°F62°F61°F61°F61°F61°F62°F61°F62°F62°F64°F63°F63°F63°F64°F64°F
Feels Like 70°F70°F70°F69°F68°F66°F64°F63°F63°F63°F62°F62°F61°F63°F65°F66°F71°F70°F73°F74°F74°F73°F72°F71°F70°F68°F66°F65°F65°F64°F64°F64°F63°F63°F62°F62°F61°F61°F62°F62°F62°F62°F64°F64°F64°F64°F64°F65°F
Cloudiness 100%100%100%100%100%100%100%100%100%100%100%100%100%100%100%100%100%100%100%100%100%100%100%100%100%100%100%100%100%100%100%100%100%100%100%100%100%100%100%100%100%100%100%100%100%100%100%100%
Visibility 6 mi6 mi6 mi6 mi6 mi6 mi6 mi6 mi6 mi6 mi6 mi6 mi6 mi6 mi6 mi6 mi6 mi6 mi6 mi6 mi6 mi6 mi6 mi6 mi6 mi6 mi6 mi6 mi6 mi6 mi6 mi6 mi6 mi6 mi2 mi1 mi3 mi6 mi6 mi6 mi6 mi6 mi6 mi6 mi6 mi6 mi6 mi6 mi
Precipitation 0%0%0%0%0%0%0%0%0%0%0%0%0%0%0%0%0%0%0%0%0%0%0%0%0%0%0%0%3%15%27%39%47%71%95%97%100%100%80%31%31%35%51%63%71%19%17%13%
Humidity 71%74%72%74%76%76%75%72%68%66%66%66%66%66%62%62%55%56%53%55%56%62%66%69%74%81%87%91%91%93%93%93%95%96%99%99%99%98%97%97%97%96%92%96%97%97%97%95%
Dew Point 61°F62°F60°F60°F60°F58°F56°F54°F53°F52°F51°F51°F51°F52°F52°F53°F54°F54°F55°F56°F57°F58°F59°F60°F61°F61°F61°F61°F61°F61°F61°F61°F61°F61°F61°F60°F60°F60°F60°F60°F60°F61°F61°F62°F62°F62°F62°F63°F
Pressure 30.09"30.09"30.09"30.09"30.09"30.06"30.09"30.09"30.09"30.06"30.06"30.06"30.09"30.09"30.12"30.12"30.15"30.15"30.15"30.15"30.15"30.15"30.15"30.15"30.18"30.18"30.18"30.21"30.21"30.21"30.21"30.21"30.18"30.15"30.15"30.12"30.15"30.12"30.12"30.12"30.12"30.12"30.12"30.12"30.09"30.09"30.06"30.06"
Wind Speed 10.7 mph9.6 mph8.8 mph7.5 mph6.7 mph5.6 mph5.1 mph4.4 mph4.2 mph3.8 mph3.3 mph2.9 mph2.7 mph1.4 mph0.9 mph1.4 mph2.9 mph4 mph5.6 mph6.4 mph8.5 mph9.1 mph8.1 mph7.6 mph8.9 mph7.7 mph6.8 mph6 mph5.4 mph4.2 mph4.6 mph3.4 mph5.1 mph6.2 mph8.1 mph7.9 mph11 mph12.1 mph10.8 mph10.9 mph11 mph10.8 mph9.6 mph6.9 mph6.4 mph7.2 mph6.5 mph6.1 mph
Wind
Direction
198°
SSW
202°
SSW
208°
SSW
207°
SSW
220°
SW
230°
SW
237°
WSW
248°
WSW
249°
WSW
246°
WSW
235°
SW
245°
WSW
306°
NW
286°
WNW
194°
SSW
235°
SW
202°
SSW
182°
S
173°
S
161°
SSE
158°
SSE
157°
SSE
161°
SSE
163°
SSE
168°
SSE
177°
S
167°
SSE
166°
SSE
169°
S
182°
S
165°
SSE
141°
SE
77°
ENE
64°
ENE
35°
NE
13°
NNE
42°
NE
33°
NNE

N

N
10°
N
13°
NNE
16°
NNE
30°
NNE
36°
NE
29°
NNE
35°
NE
30°
NNE

Daily Forecast

Date High Low Precip. Humidity
Today
Aug 3

Clouds
77 °F
57 °F
0%
45%
Wednesday
Aug 4

Clouds
75 °F
62 °F
15%
53%
Thursday
Aug 5

Rain
64 °F
61 °F
100%
96%
Friday
Aug 6

Clouds
76 °F
62 °F
0%
74%
Saturday
Aug 7

Rain
83 °F
65 °F
20%
68%
Sunday
Aug 8

Clear
78 °F
63 °F
0%
42%
Monday
Aug 9

Clear
72 °F
59 °F
0%
47%
Tuesday
Aug 10

Clouds
77 °F
64 °F
0%
67%
Wednesday
Aug 11

Clouds
81 °F
68 °F
0%
56%
Thursday
Aug 12

Clouds
79 °F
66 °F
0%
55%
Friday
Aug 13

Rain
77 °F
66 °F
28%
72%
Saturday
Aug 14

Rain
80 °F
69 °F
99%
69%
Sunday
Aug 15

Clear
76 °F
63 °F
0%
44%
Monday
Aug 16

Clear
78 °F
59 °F
0%
45%
Tuesday
Aug 17

Clear
73 °F
60 °F
0%
60%
Wednesday
Aug 18

Clear
80 °F
61 °F
0%
56%

Temperature 8-14 Day Outlook



Precipitation 8-14 Day Outlook




Quick Links
Portland News
Portland Photos
Portland Videos




About Us
Contact Us
Site Map
Search Site
Advertise With Us
   
Portland.USCoast.info
THE PORTLAND WEBSITE

Copyright 2021, Coastal Town
Privacy    |    Legal